Погода в Кургане

Погода в Кургане : погода сейчас, прогноз погоды и архив. Всё, что Вы хотите узнать о погоде в Кургане!

Хотите узнать прогноз погоды в Кургане? Тогда Вам сюда: Погода в Кургане

Поиск расширенной информации на нашем сайте:

Другие новости

Новости СМИ2

Главная страница сайта

Новости сайта

03.07.2017

Напоминаем, что на нашем специализированном сайте Метеоцентр.Азия вы можете получить высокодетализированные автоматические прогнозы погоды по пунктам России, СНГ и мира в авиационном формате (включающие направление и скорость ветра, видимость, явления погоды, количество и форму облачности, нижнюю и верхнюю границу облачности).

Рекомендуем: Магазины yves rocher

Погода в Кургане - сегодня

Время (UTC), дата Ветер
(°,м/с) 
Видим.   Явления Облачность Т
(°С)
Тd
(°С)
f(%) Тe
(°С)
Pmin
(гПа)
dP
(гПа)
Po
(мм)
O2
(г/м3)
Тmin Tmax R s Состояние
почвы
00 18.07.17 310 (СЗ) 0200 м  туман  6/0 средняя, верхняя 
[Ac trans|Ci]
+10.2 +9.3 94 +11  1014.3  0.8  754  291           
03 18.07.17 320 (СЗ) 20000 м  {туман}  9/9 1000 м кучево-дожд. 
[Cb cap]
+14.5 +13.2 92 +22  1014.9  0.7  755  286  +10        сухая 
06 18.07.17 350 (С) 20000 м  {туман}  8/3 1000 м кучево-дожд., средняя, верхняя 
[Cb cap|Ac trans|Ci fib]
+21 +13.7 63 +27  1015.1  0.6  755  280           
09 18.07.17 030 (СВ) 20000 м    10/6 1000 м кучево-дожд., средняя, верхняя 
[Cb cap|Ac trans|Ci fib]
+23.4 +12.7 51 +28  1015.3  0.2  755  278           
12 18.07.17 030 (СВ) 20000 м  {ливн. осадки}  8/4 1000 м кучево-дожд., средняя, верхняя 
[Cb cap|Ac trans|Ci fib]
+22.3 +13.9 59 +29  1015.3  755  278           
15 18.07.17 040 (СВ) 20000 м    8/3 1000 м кучево-дожд., средняя, верхняя 
[Cb cap|Ac trans|Ci fib]
+21.9 +12.9 57 +27  1015.6  0.2  755  279    +25.6       
18 18.07.17 тихо ()   10 км    4/0 верхняя 
[Ci fib]
+14.8 +12.8 88 +20  1016.7  0.9  756  286           
21 18.07.17 тихо ()   10 км    3/0 верхняя 
[Ci fib]
+13.2 +12.1 93 +17  1016.7  0.1  756  288           
00 19.07.17 тихо ()   20000 м    ясно 
+12.3 +11.4 94 +15  1017.1  0.4  756  289           
03 19.07.17 тихо ()   20000 м    ясно 
+21 +14.7 67 +29  1017  0.2  756  280  +12.1        сухая 
06 19.07.17 340 (С) 20000 м    6/6 600 м 
[Sc]
+23.5 +13 52 +29  1016.7  -0.2  756  278           
09 19.07.17 250 (З) 20000 м    5/5 600 м 
[Cu med, cong]
+26.5 +10.9 38 +29  1015.3  -1.3  755  275           
12 19.07.17 240 (ЮЗ) 20000 м    4/3 600 м верхняя 
[Cu hum|Ci fib]
+27.3 +10.4 35 +29  1013.8  -1.5  754  274           
15 19.07.17 250 (З) 20000 м    4/3 600 м верхняя 
[Cu med, cong|Ci fib]
+25.4 +12.3 44 +30  1013.6  -0.2  754  276    +27.6       
18 19.07.17 140 (ЮВ) 10 км    4/0 верхняя 
[Ci fib]
+18.2 +14.4 78 +28  1013.7  0.1  754  282           
21 19.07.17 130 (ЮВ) 10 км    3/0 верхняя 
[Ci fib]
+14.8 +13.1 90 +21  1013.3  -0.6  753  285           
00 20.07.17 тихо ()   20000 м    10/0 верхняя 
[Ci fib]
+14.8 +13.3 91 +21  1013.5  0.2  754  285           
03 20.07.17 220 (ЮЗ) 20000 м    8/0 верхняя 
[Ci fib]
+20.8 +14.7 68 +29  1013.3  754  279  +14.3        сухая 
06 20.07.17 200 (Ю) 20000 м    5/3 1000 м верхняя 
[Cu med, cong|Ci fib]
+26 +13.9 47 +33  1012.8  -0.4  753  274           
09 20.07.17 240 (ЮЗ) 20000 м  в посл. час гроза  8/6 600 м кучево-дожд., верхняя 
[Cb cap|Ci]
+27.7 +11.2 36 +30  1011.7  -1  752  273           
12 20.07.17 040 (СВ) 20000 м  гроза без осадков  10/6 600 м кучево-дожд., верхняя 
[Cb cap|Ci fib]
+24.6 +13.7 51 +31  1011.8  752  275           
15 20.07.17 130 (ЮВ) 20000 м  {гроза, ливн. осадки}  10/6 600 м кучево-дожд., верхняя 
[Cb cap|Ci fib]
+21.8 +15.2 66 +31  1012.8  0.9  753  278    +28.3       
18 20.07.17 тихо ()   10 км  {гроза, ливн. осадки}  3/0 средняя 
[Ac trans]
+17.1 +15 87 +26  1013.1  0.1  753  282           
21 20.07.17 тихо ()   10 км    ясно 
+13.6 +12.5 93 +18  1013.3  0.2  753  287           
00 21.07.17 340 (С) 4000 м  дымка  ясно 
+11.3 +10.4 94 +14  1013.8  0.4  754  290           
Время (UTC), дата Ветер
(°,м/с) 
Видим.   Явления Облачность Т
(°С)
Тd
(°С)
f(%) Тe
(°С)
Pmin
(гПа)
dP
(гПа)
Po
(мм)
O2
(г/м3)
Тmin Tmax R s Состояние
почвы

Для получения пояснительной информации подведите курсор к названию столбца.

ПОГОДА в Кургане - архив

Всё, что Вы хотите узнать о погоде в Кургане - удобно и подробно!

Выберите нужную дату (начиная с 1 января 2015* года) и нажмите кнопку "Найти".
Будут отображены архивные сводки погоды по пункту Курган, начиная с указанной даты.


Отображать данные в формате CSV (для использования в таблицах Excel)


Внимание! Наш архив погоды предназначен исключительно для личного некоммерческого использования в познавательных целях. Если Вам необходимы официальные справки о состоянии погоды (для производственных, юридических, коммерческих и т.п. целей), обращайтесь в органы Росгидромета.

*Примечание: данная дата относится к архиву по метеостанциям СССР (Россия, СНГ, Балтия).
Архив по метеостанциям Зарубежной Европы и Азии (кроме Китая) хранится 10 дней, по другим регионам земного шара (Китай, Африка, Америка, Австралия, Океания) - 1 день.

Курган - район местоположения метеостанции


Название, широта, долгота, высота метеостанции:
Курган 55.5°ш. 65.4°д. 74 м над ур. моря [Российская Федерация]

Дополнительная информация

В oтличие oт бoльшинства пoгoдных сайтoв мы публикуем пoдрoбную метеoинфoрмацию в детальнoм прoфессиoнальнoм фoрмате.

Характеристики температуры и влажнoсти вoздуха измеряются на высoте 2 м в тени вдали oт зданий и деревьев.
Скoрoсть ветра измеряется на высoте 10 м (на урoвне рoста челoвека скoрoсть ветра ниже в 1.5-2 раза). Если метеoстанция нахoдится в гoрoде или в лесу, тo скoрoсть ветра занижена на 2-4 м/с пo сравнению с oткрытым местoм. Скoрoсть ветра над акватoриями крупных рек и oзёр, а также на вершинах хoлмoв на 2-5 м/с выше, чем в oбычных услoвиях.
Атмoсфернoе давление в разных тoчках местнoсти мoжет значительнo oтличаться oт давления на метеoстанции, в зависимoсти oт услoвий рельефа (при пoдъёме на 10 м давление пoнижается примернo на 1 мм рт.ст.).